Location: Unspecified
(38.0989°N, 0.6729°W)
Time: 18:48:06
(UTC+01:00)

Envisat - Visible Passes

Search period start: 21 January 2022 00:00
Search period end: 31 January 2022 00:00
Orbit: 764 x 766 km, 98.2° (Epoch: 20 January)

Date Brightness Start Highest point End Pass type
(mag) Time Alt. Az. Time Alt. Az. Time Alt. Az.
21 Jan 4.7 05:09:54 10° NE 05:14:19 29° E 05:18:41 10° SSE visible
21 Jan 3.7 06:48:52 10° N 06:53:14 30° WNW 06:57:35 10° SW visible
22 Jan 5.9 04:35:01 10° ENE 04:37:07 12° E 04:39:12 10° ESE visible
22 Jan 2.8 06:11:30 10° N 06:16:33 68° WNW 06:21:35 10° SSW visible
23 Jan 3.7 05:34:43 10° NNE 05:39:42 52° E 05:44:38 10° S visible
23 Jan 4.3 07:14:58 10° NNW 07:18:15 18° WNW 07:21:32 10° WSW visible
24 Jan 5.1 04:58:39 10° NE 05:02:38 23° E 05:06:36 10° SE visible
24 Jan 3.4 06:37:03 10° N 06:41:43 38° WNW 06:46:22 10° SW visible
25 Jan 2.8 05:59:53 10° NNE 06:04:59 86° WNW 06:10:04 10° SSW visible
26 Jan 4.2 05:23:17 10° NNE 05:28:04 40° E 05:32:49 10° SSE visible
26 Jan 4.1 07:02:56 10° NNW 07:06:47 22° WNW 07:10:37 10° WSW visible
27 Jan 5.5 04:47:34 10° NE 04:50:57 18° E 04:54:18 10° SE visible
27 Jan 3.1 06:25:19 10° N 06:30:12 48° WNW 06:35:03 10° SW visible
28 Jan 3.1 05:48:18 10° NNE 05:53:24 74° ESE 05:58:28 10° S visible
28 Jan 4.6 07:29:32 10° NW 07:31:45 13° WNW 07:33:57 10° W visible
29 Jan 4.6 05:11:54 10° NE 05:16:25 31° E 05:20:54 10° SSE visible
29 Jan 3.8 06:51:02 10° N 06:55:18 28° WNW 06:59:33 10° SW visible
30 Jan 5.8 04:36:46 10° ENE 04:39:14 13° E 04:41:42 10° ESE visible
30 Jan 2.9 06:13:37 10° N 06:18:39 63° WNW 06:23:38 10° SSW visible
